Regional Weather Roundup
Issued by NWS Green Bay, WI

Home | Current Version | Previous Version | Graphics & Text | Print | Product List | Glossary Off
Versions: 1 2 3 4 5 6 7 8 9 10 11 12 13 14 15 16 17 18 19 20 21 22 23 24 25 26 27 28 29 30 31 32 33 34 35 36 37 38 39 40 41 42 43 44 45 46 47 48 49 50

000
ASUS43 KGRB 070011
RWRGRB

NORTH-CENTRAL AND NORTHEAST WISCONSIN REGIONAL WEATHER ROUNDUP
NATIONAL WEATHER SERVICE GREEN BAY WI
700 PM CDT MON JUL 06 2015

WIZ005-009-010>012-018-019-070100-
NORTH CENTRAL WISCONSIN

CITY           SKY/WX    TMP DP  RH WIND       PRES   REMARKS
IRONWOOD       PTSUNNY   57  55  94 NW6       29.90S VSB 1
MANITOWISH WTR CLOUDY    58  58  98 N10       29.91R FOG
ARBOR VITAE    PTSUNNY   59  57  92 N7        29.90S FOG
EAGLE RIVER    CLOUDY    57  55  94 N8        29.89R FOG
LAND O LAKES   CLOUDY    58  56  92 N8        29.91R FOG
RHINELANDER    CLOUDY    59  55  87 N10       29.89R FOG
PHILLIPS       CLOUDY    60  57  90 N5        29.91S FOG
ANTIGO         CLOUDY    60  58  94 N14G23    29.85R FOG
TOMAHAWK       CLOUDY    59  55  89 N8        29.90R FOG
MERRILL        CLOUDY    61  58  90 N7G17     29.88R
$$

WIZ013-073-070100-
NORTHEAST WISCONSIN

CITY           SKY/WX    TMP DP  RH WIND       PRES   REMARKS
IRON MOUNTAIN  RAIN      59  57  93 N14       29.84R FOG
MARINETTE      CLOUDY    70  64  83 S6        29.75S
OCONTO         CLOUDY    71  71 100 W13       29.76S VSB 3/4
$$

WIZ017-030-035>037-045-070100-
CENTRAL WISCONSIN

CITY           SKY/WX    TMP DP  RH WIND       PRES   REMARKS
MEDFORD        PTSUNNY   61  56  83 N13G22    29.90R HAZE
WAUSAU         CLOUDY    63  58  83 N14G24    29.84R HAZE
MOSINEE        NOT AVBL
MARSHFIELD     CLOUDY    64  57  78 N15G23    29.87R
WISC RAPIDS    CLOUDY    66  63  90 N16G23    29.85R
STEVENS POINT  CLOUDY    64  62  94 NW13      29.84R
WAUPACA        CLOUDY    75  73  93 W5        29.79S
SHAWANO        CLOUDY    73  70  88 SW12G20   29.77S
CLINTONVILLE   CLOUDY    72  70  94 W10       29.78S
$$

WIZ038-039-048-051-070100-
FOX VALLEY

CITY           SKY/WX    TMP DP  RH WIND       PRES   REMARKS
NWS GREEN BAY  LGT RAIN  74  70  87 W8G32     29.77S FOG
APPLETON       PTSUNNY   77  64  65 SW16G23   29.80R
OSHKOSH        CLOUDY    76  69  79 VRB5      29.79S
FOND DU LAC    CLOUDY    78  70  76 SW8       29.80S
$$

WIZ022-050-052-070100-
EAST CENTRAL WISCONSIN

CITY           SKY/WX    TMP DP  RH WIND       PRES   REMARKS
STURGEON BAY   CLOUDY    68  64  88 SE5       29.79S
MANITOWOC      CLOUDY    76  70  82 MISG      29.79S
SHEBOYGAN      CLOUDY    79  69  71 SW14      29.80S
$$

LMZ563-521-522-541>543-070100-
LAKESHORE

STATION/POSITION TIME  TEMP    WIND        PRES    VSBY  WAVE
                       AIR SEA DIR/SP/G                  HT/PER
                 (UTC) (F)     (DEG/KT/KT) (MB)    (MI)  (FT/S)
SHEBOYGAN LKSHOR 0000   67     180/ 14/ 14 1009.0R
KEWAUNEE LKSHORE 2300   59     180/ 13/ 15 1008.0F
ALGOMA MARINA    2341          210/ 11/ 13   N/A
NORTHPORT PIER   2300   64     150/  7/ 12 1008.1F
N MID LAKE BUOY  2350   61 56  210/ 16/ 19 1007.9F         4/ 5
S GREEN BAY BUOY 0000   71 70  190/  4/  6 1009.0
STURGEON BAY CG  2355   56     180/  6     1009.7    3/8   2
CHAMBERS ISLAND  2300   69     150/  4/ 11 1007.8F
MENOMINEE LKSHOR 2300   69     170/  9/ 12 1008.5F
$$


USA.gov is the U.S. government's official web portal to all federal, state and local government web resources and services.